Погода в Лодзи

Польша     51°46′36″N   19°27′16″E
темп.,
°C
ветер,
м/с
пор.,
м/с
влажн.,
%
обл.,
%
осадки,
мм/ч
давл.,
гПа
погр.,
м
19 января, вт
вт1901:00−9ю369597 0.0 1019127
04:00−6ю479696 0.8 1016247
07:00−2ююз269898 2.2 1015205
10:00+1з4898100 1.1 1015335
13:00+1зюз4999100 1.8 1013363
16:000ююз4897100 0.1 1011325
19:000ююз5998100 1.3 1010482
22:000ююз51097100 1.1 1009542
20 января, ср
ср2001:00+1ююз4898100 1.1 1008282
04:00+1ююз4899100 1.8 1008235
07:00+2зюз512100100 2.7 1008297
10:00+1юз511100100 0.0 1009319
13:00+1ююз512100100 0.0 1009303
16:00+2юз5139397 0.0 1008333
19:00+2ююз6148499 0.0 1008309
22:00+2юз5138295 0.0 1008294
21 января, чт
чт2101:00+1ююз5128070 0.0 1008246
04:00+2ююз5128622 0.0 1007253
07:00+2ююз6148860 0.0 1008340
10:00+2ююз6159177 0.0 1007368
13:00+3ююз5159564 0.0 1007509
16:00+2ююз5149464 0.0 1005377
19:00+2ююз6148550 0.0 1005321
22:00+1ююз5118889 0.0 1004264
22 января, пт
пт2201:00+1ююз5128245 0.0 1003236
04:00+3ююз6158544 0.0 1000320
07:00+2ююв5158472 0.0 998344
10:00+4ю61787100 0.0 996653
13:00+4юз61490100 0.0 997450
16:00+3юз5138491 0.0 997296
19:00+3зюз4118696 0.0 1000279
22:00+1юз2393100 0.0 100061
23 января, сб
сб2301:00+1ююз129199 0.0 100022
04:00+2юв229097 0.0 100022
07:00+2в359398 0.0 999128
10:00+2вюв51098100 0.4 997307
13:00+4вюв61193100 0.5 993326
16:00+4ююв51395100 2.4 991356
19:00+4ююз41096100 4.2 991340
22:00+1з51096100 0.4 993493